Location: Krakow
(50.0830°N, 19.9170°E)
Time: 20:04:35
(UTC+01:00)

Altair - Pass Details

Date: 10 December 2023
Orbit: 1501 x 1682 km, 47.2° (Epoch: 03 March)

Event Time Altitude Azimuth Distance (km) Brightness Sun altitude
Rises 06:01:35 0° 214° (SW) 4,870 10.0 -13.0°
Reaches altitude 10° 06:05:01 10° 207° (SSW) 3,864 9.5 -12.5°
Maximum altitude 06:13:49 39° 143° (SE) 2,233 8.9 -11.1°
Drops below altitude 10° 06:22:20 10° 79° (E) 3,745 10.5 -9.9°
Sets 06:25:35 0° 73° (ENE) 4,707 10.9 -9.4°
